STARLINK-1164 (45070 NORAD) Tracking and Keplerian Element Data

This shows tracking and keplerian element data for the satellite.

Feedback or suggestion? Click here.




ElementValue
Catalog45070
NameSTARLINK-1164
Epoch Orbit177
Epoch Day52.91667824
Epoch Year2020
RAAN119.4899
Inclination52.9959
Eccentricity0.0001426
Argument of Perigee49.9982
Mean Anonmoly104.6649
Mean Motion15.73168423
Decay Rate0.00125928
L11 45070U 20006AC 20052.91667824 .00125928 00000-0 88926-3 0 9999
L22 45070 52.9959 119.4899 0001426 49.9982 104.6649 15.73168423 1777

Live tracking and technical data element details for STARLINK-1164 (NORAD 45070). STARLINK-1164 can be tracked NOW for your location showing map with azimuth and elevation plus other details from your city location.

Track the satellite on the map from your city or location and see movement details for azimuth, elevation, latitude, longitude, range, height, and movement on the map or in text.







IsCatalogInMostPopularTable: catalog: 45070, numindb: 7
Update: records affected: 1



GetName: 45070 STARLINK-1164

Hit Count: updated at: Wed, 26 Feb 2020 15:27:36 GMT